GW3798 Weather Reports


time (UTC)temp
C
wind
direction
speed
KPH
gust
KPH
rain 1hr
cm
rain 24hr
cm
rain mn
cm
humidity
%
barometer
mb
20260507170049 12 5 16.1 29.0 0.00 0.00 0.00 52 1010.5
20260507164547 11 321 12.9 27.4 0.00 0.00 0.00 52 1010.4
20260507163050 11 306 20.9 40.2 0.00 0.00 0.00 50 1010.2
20260507161546 11 295 25.7 43.5 0.00 0.00 0.00 50 1010.3
20260507160048 11 276 29.0 43.5 0.00 0.00 0.00 48 1010.3
20260507154552 11 296 30.6 46.7 0.00 0.00 0.00 49 1010.3
20260507153048 10 300 24.1 38.6 0.00 0.00 0.00 47 1010.3
20260507151545 10 298 24.1 40.2 0.00 0.00 0.00 47 1010.2
20260507150043 9 261 22.5 40.2 0.00 0.00 0.00 42 1010.2
20260507144541 10 266 17.7 30.6 0.00 0.00 0.00 39 1010.6
20260507143051 10 320 17.7 27.4 0.00 0.00 0.00 40 1010.4
20260507141551 9 323 16.1 22.5 0.00 0.00 0.00 41 1010.2
20260507140048 7 319 16.1 24.1 0.00 0.00 0.00 44 1010.1
20260507134547 7 321 17.7 25.7 0.00 0.00 0.00 43 1010.0
20260507133043 7 312 14.5 24.1 0.00 0.00 0.00 44 1009.9
20260507131558 7 307 17.7 25.7 0.00 0.00 0.00 44 1009.8
20260507130050 6 331 16.1 24.1 0.00 0.00 0.00 45 1009.6
20260507124547 6 331 14.5 22.5 0.00 0.00 0.00 45 1009.5
20260507123048 6 331 12.9 22.5 0.00 0.00 0.00 44 1009.3
20260507121546 6 325 14.5 22.5 0.00 0.00 0.00 43 1009.1
20260507120044 5 311 16.1 24.1 0.00 0.00 0.00 44 1008.9
20260507114545 5 302 19.3 32.2 0.00 0.00 0.00 44 1008.9
20260507113047 5 349 19.3 29.0 0.00 0.00 0.00 43 1008.8
20260507111540 5 335 17.7 27.4 0.00 0.00 0.00 41 1008.7
20260507110049 5 344 16.1 25.7 0.00 0.00 0.00 38 1008.7
20260507104546 4 337 16.1 27.4 0.00 0.00 0.00 38 1008.6
20260507103041 5 339 17.7 25.7 0.00 0.00 0.00 36 1008.5
20260507101541 5 319 19.3 27.4 0.00 0.00 0.00 36 1008.4
20260507100053 5 319 17.7 33.8 0.00 0.00 0.00 35 1008.3
20260507094548 5 319 17.7 29.0 0.00 0.00 0.00 35 1008.2
20260507093053 5 289 19.3 29.0 0.00 0.00 0.00 34 1008.3
20260507091543 5 282 19.3 30.6 0.00 0.00 0.00 34 1008.2
20260507090044 5 277 16.1 24.1 0.00 0.00 0.00 34 1008.4
20260507084544 5 264 12.9 22.5 0.00 0.00 0.00 33 1008.3
20260507083050 5 271 12.9 20.9 0.00 0.00 0.00 33 1008.3
20260507081547 6 264 16.1 27.4 0.00 0.00 0.00 32 1008.3
20260507080049 5 300 4.8 14.5 0.00 0.00 0.00 33 1008.5
20260507074546 5 309 9.7 20.9 0.00 0.00 0.00 33 1008.7
20260507073046 5 261 11.3 17.7 0.00 0.00 0.00 33 1008.9
20260507071602 6 267 16.1 24.1 0.00 0.00 0.00 32 1008.9
20260507070052 5 249 14.5 27.4 0.00 0.00 0.00 33 1009.0
20260507064550 5 249 16.1 19.3 0.00 0.00 0.00 32 1009.1
20260507063045 5 239 12.9 19.3 0.00 0.00 0.00 32 1009.4
20260507061556 5 237 16.1 19.3 0.00 0.00 0.00 32 1009.5
20260507060050 5 248 12.9 16.1 0.00 0.00 0.00 33 1009.6
20260507054546 5 242 11.3 16.1 0.00 0.00 0.00 32 1009.6
20260507053110 5 232 12.9 17.7 0.00 0.00 0.00 32 1010.0
20260507051544 6 251 14.5 19.3 0.00 0.00 0.00 31 1010.1
20260507050044 6 240 14.5 19.3 0.00 0.00 0.00 32 1010.0
20260507044541 6 254 11.3 16.1 0.00 0.00 0.00 32 1010.1
20260507043045 5 271 8.0 12.9 0.00 0.00 0.00 32 1010.2
20260507041543 6 311 6.4 12.9 0.00 0.00 0.00 31 1010.2
20260507040043 5 313 6.4 12.9 0.00 0.00 0.00 31 1010.5
20260507034541 5 329 8.0 16.1 0.00 0.00 0.00 31 1010.5
20260507033052 5 324 9.7 17.7 0.00 0.00 0.00 31 1010.8
20260507031551 5 327 11.3 17.7 0.00 0.00 0.00 31 1010.9
20260507030042 5 326 11.3 16.1 0.00 0.00 0.00 31 1010.8
20260507024557 5 321 9.7 16.1 0.00 0.00 0.00 31 1010.9
20260507023041 6 294 12.9 19.3 0.00 0.00 0.00 31 1010.8
20260507021550 6 304 11.3 17.7 0.00 0.00 0.00 30 1010.8
20260507020045 6 287 9.7 17.7 0.00 0.00 0.00 30 1010.7
20260507014549 6 292 12.9 19.3 0.00 0.00 0.00 30 1010.8
20260507013050 6 269 12.9 22.5 0.00 0.00 0.00 29 1010.9
20260507011542 6 278 14.5 25.7 0.00 0.00 0.00 29 1010.9
20260507010051 7 264 16.1 29.0 0.00 0.00 0.00 28 1010.7
20260507004546 6 271 11.3 32.2 0.00 0.00 0.00 30 1011.0
20260507003044 6 254 19.3 29.0 0.00 0.00 0.00 29 1011.2
20260507001552 7 247 17.7 30.6 0.00 0.00 0.00 29 1011.5
20260507000051 7 296 20.9 38.6 0.00 0.00 0.00 28 1011.5
20260506234550 7 257 24.1 43.5 0.00 0.00 0.00 28 1011.6
20260506233055 7 252 27.4 41.8 0.00 0.00 0.00 27 1011.6
20260506231548 6 257 24.1 35.4 0.00 0.00 0.00 28 1011.8
20260506230045 7 253 24.1 38.6 0.00 0.00 0.00 28 1011.7
20260506224542 7 288 25.7 37.0 0.00 0.00 0.00 26 1011.9
20260506223040 7 309 24.1 41.8 0.00 0.00 0.00 29 1011.8
20260506221550 6 275 25.7 46.7 0.00 0.00 0.00 30 1012.2
20260506220046 6 273 17.7 40.2 0.00 0.00 0.00 31 1012.6
20260506214555 7 277 16.1 37.0 0.00 0.00 0.00 30 1012.7
20260506213044 6 249 24.1 41.8 0.00 0.00 0.00 31 1012.9
20260506211544 5 247 20.9 37.0 0.00 0.00 0.00 33 1013.3
20260506210041 5 294 20.9 33.8 0.00 0.00 0.00 34 1013.5
20260506204544 5 308 22.5 40.2 0.00 0.00 0.00 34 1013.7
20260506203040 5 250 14.5 32.2 0.00 0.00 0.00 35 1013.9
20260506201549 5 290 17.7 35.4 0.00 0.00 0.00 35 1013.7
20260506200049 5 331 20.9 32.2 0.00 0.00 0.00 36 1013.6
20260506194543 5 288 14.5 29.0 0.00 0.00 0.00 37 1013.9
20260506193040 3 243 16.1 43.5 0.00 0.00 0.00 37 1014.4
20260506191557 3 287 17.7 32.2 0.00 0.00 0.00 38 1014.5
20260506190046 3 244 12.9 27.4 0.00 0.00 0.00 40 1014.8
20260506184551 2 250 19.3 38.6 0.00 0.00 0.00 41 1014.6
20260506183050 2 281 11.3 27.4 0.00 0.00 0.00 41 1014.9
20260506181554 2 294 11.3 29.0 0.00 0.00 0.00 43 1015.2
20260506180058 2 316 16.1 32.2 0.00 0.00 0.00 43 1015.3
20260506174548 2 288 14.5 32.2 0.00 0.00 0.00 43 1015.5
20260506173045 1 290 16.1 29.0 0.00 0.00 0.00 43 1015.6
20260506171554 1 280 16.1 35.4 0.00 0.00 0.00 47 1015.5